www.pogodaiklimat.ru

Погода и климат >> Архив погоды >> Аргентина >> Marcos Juarez


ПОГОДА в Marcos Juarez

  • Прогноз погоды в Marcos Juarez
  • Монитор погоды в Marcos Juarez
  • Климат города

АРХИВ ПОГОДЫ в Marcos Juarez

Время (UTC), дата Ветер
(напр.,м/с)
 
Видим.   Явления Облачность Т
(С)
Тd
(С)
f
(%)
Тe
(С)
Тes
(С)
Комфортность P
(гПа)
Po
(гПа)
Тmin
(С)
Tmax
(С)
R
(мм)
R24
(мм)
S
(см)
18 17.09 С 2 20 км 9/4 1470 м
[Cu hum Cs]
+25.2 +10.7 40 +26 +32 жарко 1009.7 996.2
21 17.09 С 4 20 км 9/0
[Cs]
+25.0 +10.4 40 +26 +27 жарко 1008.3 994.9
00 18.09 СВ 3 20 км 9/0
[Ac trans Cs]
+15.6 +9.5 67 +15 +15 1008.5 995.0 +15.0 +25.7
03 18.09 СВ 5 20 км 8/0
[Ac trans Cs]
+12.0 +8.4 79 +10 +10 1008.6 995.2
06 18.09 СВ 4 20 км 4/0
[Cs]
+12.8 +9.7 81 +11 +11 1006.6 993.3
09 18.09 СВ 3 20 км 6/0
[Cs]
+11.8 +9.9 88 +10 +10 1004.4 991.0
12 18.09 С 7 20 км 9/0
[Ac As Ci ing]
+17.7 +13.1 74 +17 +18 1004.9 991.4 +10.0 +17.7
15 18.09 С 9 20 км 5/1 750 м
[Sc Ac As Cs]
+26.4 +12.4 42 +28 +29 жарко 1002.9 989.7
18 18.09 С 6 20 км 4/3 900 м
[Cu hum Ac As]
+28.9 +12.4 36 +30 +33 жарко 1000.3 987.2
21 18.09 СВ 5 20 км 9/6 900 м
[Cb cap As op]
+24.9 +11.7 44 +26 +27 жарко 997.2 984.0
00 19.09 Ю 9 20 км гроза без осадков 10/8 600 м
[Cb cap As op]
+17.2 +14.8 86 +16 +16 1002.0 988.6 +17.0 +29.0 1
03 19.09 ЮЗ 5 20 км в посл. час гроза 10/8 600 м
[Cb cap As op]
+14.0 +12.0 88 +12 +12 1006.5 993.3
06 19.09 Ю 6 20 км {гроза} 5/0
[Ac As]
+12.8 +8.9 77 +10 +10 1008.9 995.7 9
09 19.09 ЮЗ 2 20 км ясно +9.3 +7.9 91 +7 +7 1010.0 996.6
12 19.09 ЮЗ 5 20 км 1/0
[Cs]
+13.0 +9.5 79 +11 +13 1012.8 999.2 +7.0 +17.2 10
15 19.09 ЮВ 4 20 км 3/0
[Cs]
+20.5 +4.1 34 +21 +30 комфорт 1014.0 1000.5
18 19.09 Ю 5 20 км 8/1 750 м
[Sc Ac As Cs]
+21.5 +0.5 25 +21 +25 комфорт 1011.9 998.5
21 19.09 ЮВ 4 20 км 6/1 750 м
[Sc Ac As Cs]
+20.7 +3.5 32 +21 +22 комфорт 1012.5 998.9
00 20.09 ЮВ 3 20 км 3/0
[Cs]
+12.3 +3.7 56 +11 +11 1013.9 1000.2 +12.3 +22.0
03 20.09 В 1 20 км 10/0
[Ac As Cs]
+10.5 +5.0 69 +11 +11 1015.8 1002.2
06 20.09 С 3 20 км 8/0
[Ac As Cs]
+8.6 +4.6 76 +6 +6 1014.5 1000.9
09 20.09 С 2 20 км 8/0
[Ac As Cs]
+6.9 +3.6 79 +5 +5 1014.1 1000.5
12 20.09 С 2 20 км 5/0
[Ac As Cs]
+15.0 +5.9 54 +15 +18 1014.8 1001.0 +6.4 +15.0
15 20.09 С 7 20 км 3/0
[Cs]
+23.0 +4.3 30 +23 +27 комфорт 1013.6 1000.1
18 20.09 СВ 8 20 км 5/0
[Cs]
+24.3 +5.1 29 +24 +26 комфорт 1010.7 997.2
21 20.09 С 8 20 км 5/0
[Cs]
+22.7 +5.3 32 +23 +23 комфорт 1009.4 995.8
00 21.09 СВ 5 20 км ясно +15.0 +6.7 58 +14 +14 1010.2 996.6 +15.0 +25.0
03 21.09 СВ 4 20 км ясно +12.6 +7.5 71 +11 +11 1010.0 996.6
06 21.09 С 3 20 км 5/0
[Cs]
+12.4 +8.0 75 +11 +11 1008.4 995.0
09 21.09 С 3 20 км 4/0
[Cs]
+12.6 +8.9 78 +11 +11 1007.8 994.4
12 21.09 СЗ 6 20 км 4/0
[Cs]
+16.4 +12.1 76 +15 +17 1009.1 995.6 +12.2 +16.4
15 21.09 СЗ 4 20 км 8/0
[Ci]
+26.6 +16.4 54 +30 +39 душно 1008.6 995.3
18 21.09 С 5 20 км 4/0
[Cs]
+30.8 +15.5 40 +33 +39 душно 1006.0 992.8
21 21.09 СВ 6 20 км 4/0
[Cs]
+30.2 +15.9 42 +33 +34 душно 1004.5 991.3
00 22.09 СВ 7 20 км ясно +22.2 +17.2 73 +27 +27 душно 1004.5 991.2 +16.4 +31.3
03 22.09 СВ 6 20 км ясно +20.3 +17.7 85 +23 +23 комфорт 1004.4 991.3
06 22.09 СВ 6 20 км ясно +20.6 +18.7 89 +24 +24 комфорт 1002.2 989.3
09 22.09 СВ 5 20 км ясно +20.0 +18.4 91 +23 +23 комфорт 1000.8 987.8
12 22.09 С 7 20 км 3/0
[Cs]
+23.1 +19.9 82 +30 +31 очень
душно
1001.9 988.8 +19.5 +23.1
15 22.09 С 7 20 км 3/0
[Cs]
+32.6 +22.0 54 +41 +45 опасность
перегрева
999.2 986.2
18 22.09 СЗ 7 20 км 5/3 1470 м
[Cu hum Cs]
+36.3 +20.3 39 +42 +44 опасность
перегрева
995.4 982.6
21 22.09 С 2 20 км гроза без осадков туман 9/4 900 м
[Cb cap As op Cs]
+32.7 +20.8 50 +40 +41 очень
душно
994.0 981.2
00 23.09 В 5 20 км в посл. час гроза 8/4 750 м
[Cb cap As op]
+26.6 +21.7 75 +34 +34 очень
душно
999.0 986.1 +23.1 +36.9 0.0
03 23.09 ЮВ 8 20 км ясно +22.0 +12.0 53 +24 +24 комфорт 1000.2 987.4
06 23.09 ЮВ 6 20 км 5/1 750 м
[Sc Ac As]
+19.5 +15.1 76 +21 +21 комфорт 1002.6 989.7
09 23.09 ЮВ 7 20 км 6/3 750 м
[Sc Ac As]
+19.3 +16.2 82 +20 +20 1003.0 990.1
12 23.09 ЮВ 8 20 км 5/0
[Ac As]
+20.4 +14.7 70 +23 +23 комфорт 1005.0 991.8 +18.0 +26.6 0.0
15 23.09 В 11 20 км 1/0
[Ac As]
+26.4 +11.5 39 +25 +25 комфорт 1005.6 992.5
18 23.09 ЮВ 9 20 км ясно +28.4 +8.6 29 +28 +29 жарко 1004.4 991.4
21 23.09 ЮВ 9 20 км ясно +26.2 +8.2 32 +26 +26 жарко 1005.7 992.6
00 24.09 ЮВ 6 20 км ясно +18.6 +6.2 44 +18 +18 1010.3 997.0 +18.6 +28.8
03 24.09 ЮВ 8 20 км ясно +15.2 +6.4 56 +13 +13 1013.2 999.8
06 24.09 ЮВ 5 20 км ясно +11.8 +4.4 60 +9 +9 1013.9 1000.6
09 24.09 Ю 4 20 км ясно +8.0 +4.4 78 +5 +5 1014.5 1001.0
12 24.09 ЮВ 2 20 км 9/0
[Cs]
+13.2 +6.6 64 +13 +16 1017.5 1003.8 +7.0 +18.6
15 24.09 В 7 20 км 9/0
[Ac As Cs]
+21.2 +6.3 38 +22 +24 комфорт 1018.3 1004.8

 

Местоположение метеостанции Marcos Juarez (Аргентина): широта -32.70 долгота -62.15 высота над уровнем моря 114 м.

В архиве по умолчанию представлена погода в Marcos Juarez за последнюю неделю. Архивные данные за месяц целиком и за предыдущие месяцы, начиная с января 2011 года, Вы можете получить, выбрав интересующий диапазон дат из раскрывающегося списка и нажав кнопку "Ввод!".


*Определитесь, кто Вы:
робот инопланетянин человек

Внимание! Время в таблицах - всемирное. Для получения местного времени необходимо прибавить поправку, которая в Marcos Juarez равна -3 ч.

Смотрите также архив погоды в соседних городах и на ближайших метеорологических станциях:

Погода в Rosario (Аргентина) (130 км)
Погода в Santa Fe (Аргентина) (168 км)
Погода в Parana (Аргентина) (187 км)
Погода в Laboulaye (Аргентина) (195 км)
Погода в Pilar (Аргентина) (200 км)
Погода в Rio Cuarto (Аргентина) (203 км)
Погода в Junin (Аргентина) (236 км)
Погода в Cordoba (Аргентина) (248 км)
Погода в Villa Dolores (Аргентина) (292 км)
Погода в Ceres (Аргентина) (314 км)

Пояснения к столбцам:

Ветер - указаны скорость ветра в м/с - средняя за 10 мин, порывы в срок и между сроками (в фигурных скобках) и направление, откуда дует ветер: С - северный, СВ - северо-восточный, В - восточный, ЮВ - юго-восточный, Ю - южный, ЮЗ - юго-западный, З - западный, СЗ - северо-западный.
Видимость - горизонтальная дальность видимости в метрах или километрах. При видимости от 1 до 10 км при отсутствии осадков обычно наблюдается дымка, при ухудшении видимости до 1 км и менее - туман. В сухую погоду видимость может ухудшаться дымом, пылью или мглою.
Явления - указаны атмосферные явления, наблюдавшиеся в срок или в последний час перед сроком; фигурными скобками обозначены явления, наблюдавшиеся между сроками (за 1-3 часа до срока); квадратными скобками обозначены град или гололедные отложения с указанием их диаметра в мм.
Облачность - указаны через наклонную черту общая и нижняя облачность в баллах и высота нижней границы облаков в метрах; квадратными скобками обозначены формы облаков: Ci - перистые, Cs - перисто-слоистые, Cc - перисто-кучевые, Ac - высококучевые, As - высокослоистые, Sc - слоисто-кучевые, Ns - слоисто-дождевые, Cu - кучевые, Cb - кучево-дождевые. Подробнее классификацию облаков см. в Атласе облаков (PDF).
T - Температура воздуха - температура, измеренная на высоте 2 м над землей.
Td - Температура точки росы - температура, при понижении до которой содержащийся в воздухе водяной пар достигнет насыщения.
f - Относительная влажность воздуха - влажноcть воздуха, измеренная на высоте 2 м над землей.
Te - Эффективная температура - температура, которую ощущает одетый по сезону человек в тени. Характеристика душности погоды. При расчете учитывается влияние влажности воздуха и скорости ветра на теплоощущения человека.
Tes - Эффективная температура на солнце - температура, которую ощущает человек, с поправкой на солнечный нагрев. Характеристика знойности погоды. Зависит от высоты солнца над горизонтом, облачности и скорости ветра. Ночью, в пасмурную погоду, а также при ветре 12 м/с и более поправка равна нулю.
P - Атмосферное давление - приведенное к уровню моря атмосферное давление.
Po - Атмосферное давление - измеренное на уровне метеостанции атмосферное давление.
Tmin - Минимальная температура - минимум температуры воздуха на высоте 2 м над землей.
Tmax - Максимальная температура - максимум температуры воздуха на высоте 2 м над землей.
R - Количество осадков - Количество выпавших осадков за период времени, мм. При наведении курсора мыши на число - период времени, за который выпало указанное количество осадков.
R24 - Количество осадков - Количество выпавших осадков за 24 часа, мм.
S - Снежный покров - Высота снежного покрова, см. При наведении курсора мыши на число - состояние снежного покрова и степень покрытия местности в баллах.